SCP
0 0 0 0 -0 -0 -0 0 0 0 0 0 0 0 -0 -0 -0 0 0 0 0 0 0 0 0 0 0 0 0 0 0 0 0 0 0 0 0 0 0 0 0 0 0 0 0 0 0 0 0
0 0 0 0 -0 -0 -0 0 0 0 0 0 0 0 0 -0 0 0 0 0 0 0 0 0 0 0 0 0 0 0 0 0 0 0 0 0 0 0 0 0 0 0 0 0 0 0 0 0 0
0 0 0 0 -0 -0 -0 0 0 0 0 0 0 0 0 0 0 0 0 0 0 0 0 0 0 0 0 0 0 0 0 0 0 0 0 0 0 0 0 0 0 0 0 0 0 0 0 0 0
0 -0 -0 -0 -0 -0 -0 0 0 0 0 0 0 0 0 0 0 0 0 0 0 0 0 0 0 0 0 0 0 0 0 0 0 0 0 0 0 0 0 0 0 0 0 0 0 0 0 0 0
0 0 -0 -0 -0 -0 -0 0 0 0 0 0 0 0 0 0 0 0 0 0 0 0 0 0 0 0 0 0 0 0 0 0 0 0 0 0 0 0 0 0 0 0 0 0 0 0 0 0 0
0 0 -0 -0 -0 -0 -0 0 0 0 0 0 0 0 0 0 0 0 0 0 0 0 0 0 0 0 0 0 0 0 0 0 0 0 0 0 0 0 0 0 0 0 0 0 0 0 0 0 0
0 0 -0 -0 -0 -0 -0 0 0 0 0 0 0 0 0 0 0 0 0 0 0 0 0 0 0 0 0 0 0 0 0 0 0 0 0 0 0 0 0 0 0 0 0 0 0 0 0 0 0
0 0 0 0 -0 -0 0 0 0 0 0 0 0 0 0 0 0 0 0 0 0 0 0 0 0 0 0 0 0 0 0 0 0 0 0 0 0 0 0 0 0 0 0 0 0 0 0 0 0
0 0 0 0 0 0 0 0 0 0 0 0 0 0 0 0 0 0 0 0 0 0 0 0 0 0 0 0 0 0 0 0 0 0 0 0 0 0 0 0 0 0 0 0 0 0 0 0 0
0 0 0 0 0 0 0 0 0 0 0 0 0 0 0 0 0 0 0 0 0 0 0 0 0 0 0 0 0 0 0 0 0 0 0 0 0 0 0 0 0 0 0 0 0 0 0 0 0
0 0 0 0 0 0 0 0 0 0 0 0 0 0 0 0 0 0 0 0 0 0 0 0 0 0 0 0 0 0 0 0 0 0 0 0 0 0 0 0 0 0 0 0 0 0 0 0 0
0 0 0 0 0 0 0 0 0 0 0 0 0 0 0 0 0 0 0 0 0 0 0 0 0 0 0 0 0 0 0 0 0 0 0 0 0 0 0 0 0 0 0 0 0 0 0 0 0
0 0 0 0 0 0 0 0 0 0 0 0 0 0 0 0 0 0 0 0 0 0 0 0 0 0 0 0 0 0 0 0 0 0 0 0 0 0 0 0 0 0 0 0 0 0 0 0 0
0 0 0 0 0 0 0 0 0 0 0 0 0 0 0 0 0 0 0 0 0 0 0 0 0 0 0 0 0 0 0 0 0 0 0 0 0 0 0 0 0 0 0 0 0 0 0 0 0
0 0 0 0 0 0 0 0 0 0 0 0 0 0 0 0 0 0 0 0 0 0 0 0 0 0 0 0 0 0 0 0 0 0 0 0 0 0 0 0 0 0 0 0 0 0 0 0 0
0 0 0 0 0 0 0 0 0 0 0 0 0 0 0 0 0 0 0 0 0 0 0 0 0 0 0 0 0 0 0 0 0 0 0 0 0 0 0 0 0 0 0 0 0 0 0 0 0
0 0 0 0 0 0 0 0 0 0 0 0 0 0 0 0 0 0 0 0 0 0 0 0 0 0 0 0 0 0 0 0 0 0 0 0 0 0 0 0 0 0 0 0 0 0 0 0 0
0 0 0 0 0 0 0 0 0 0 0 0 0 0 0 0 0 0 0 0 0 0 0 0 0 0 0 0 0 0 0 0 0 0 0 0 0 0 0 0 0 0 0 0 0 0 0 0 0
0 0 0 0 0 0 0 0 0 0 0 0 0 0 0 0 0 0 0 0 0 0 0 0 0 0 0 0 0 0 0 0 0 0 0 0 0 0 0 0 0 0 0 0 0 0 0 0 0
0 0 0 0 0 0 0 0 0 0 0 0 0 0 0 0 0 0 0 0 0 0 0 0 0 0 0 0 0 0 0 0 0 0 0 0 0 0 0 0 0 0 0 0 0 0 0 0 0
0 0 0 0 0 0 0 0 0 0 0 0 0 0 0 0 0 0 0 0 0 0 0 0 0 0 0 0 0 0 0 0 0 0 0 0 0 0 0 0 0 0 0 0 0 0 0 0 0
0 0 0 0 0 0 0 0 0 0 0 0 0 0 0 0 0 0 0 0 0 0 0 0 0 0 0 0 0 0 0 0 0 0 0 0 0 0 0 0 0 0 0 0 0 0 0 0 0
0 0 0 0 0 0 0 0 0 0 0 0 0 0 0 0 0 0 0 0 0 0 0 0 0 0 0 0 0 0 0 0 0 0 0 0 0 0 0 0 0 0 0 0 0 0 0 0 0
0 0 0 0 0 0 0 0 0 0 0 0 0 0 0 0 0 0 0 0 0 0 0 0 0 0 0 0 0 0 0 0 0 0 0 0 0 0 0 0 0 0 0 0 0 0 0 0 0
0 0 0 0 0 0 0 0 0 0 0 0 0 0 0 0 0 0 0 0 0 0 0 0 0 0 0 0 0 0 0 0 0 0 0 0 0 0 0 0 0 0 0 0 0 0 0 0 0
0 0 0 0 0 0 0 0 0 0 0 0 0 0 0 0 0 0 0 0 0 0 0 0 0 0 0 0 0 0 0 0 0 0 0 0 0 0 0 0 0 0 0 0 0 0 0 0 0
0 0 0 0 0 0 0 0 0 0 0 0 0 0 0 0 0 0 0 0 0 0 0 0 0 0 0 0 0 0 0 0 0 0 0 0 0 0 0 0 0 0 0 0 0 0 0 0 0
0 0 0 0 0 0 0 0 0 0 0 0 0 0 0 0 0 0 0 0 0 0 0 0 0 0 0 0 0 0 0 0 0 0 0 0 0 0 0 0 0 0 0 0 0 0 0 0 0
0 0 0 0 0 0 0 0 0 0 0 0 0 0 0 0 0 0 0 0 0 0 0 0 0 0 0 0 0 0 0 0 0 0 0 0 0 0 0 0 0 0 0 0 0 0 0 0 0
0 0 0 0 0 0 0 0 0 0 0 0 0 0 0 0 0 0 0 0 0 0 0 0 0 0 0 0 0 0 0 0 0 0 0 0 0 0 0 0 0 0 0 0 0 0 0 0 0
Wind_Speed
6 5 3 2 2 2 2 2 2 4 4 3 4 3 3 1 1 4 7 11 13 13 13 12 11 12 13 13 13 13 14 14 15 15 15 16 16 16 17 16 16 17 17 18 18 18 18 18 18
5 4 2 2 4 4 3 3 4 4 5 6 4 3 3 3 4 6 9 11 14 13 12 12 12 12 13 13 13 13 14 14 15 15 15 15 16 16 16 16 16 16 17 17 18 18 17 17 17
2 3 2 2 4 4 2 3 4 5 6 4 4 2 1 3 5 8 9 14 14 13 12 12 11 12 14 14 13 14 14 14 14 15 15 15 15 15 15 15 15 16 16 17 17 17 17 16 16
2 0 1 4 5 3 1 2 5 8 6 3 4 5 4 3 5 7 12 14 14 13 12 13 11 13 14 13 14 14 14 14 14 14 15 15 15 15 15 15 15 15 15 16 16 16 16 16 16
0 1 3 5 6 2 2 2 7 8 7 5 5 4 5 3 4 10 14 14 14 13 12 14 11 11 12 13 14 14 14 14 14 14 14 14 14 14 14 15 14 14 15 15 15 15 15 15 15
1 2 6 8 7 3 3 4 8 8 6 5 6 5 5 3 7 12 13 13 13 13 12 13 11 10 10 11 13 13 13 14 14 14 14 14 13 13 14 14 14 14 14 14 14 14 14 14 14
3 4 7 8 7 5 3 5 7 8 8 7 6 7 5 6 9 12 12 11 12 12 12 12 12 11 10 9 10 11 11 12 13 13 13 12 12 12 12 12 13 13 14 14 13 13 13 13 13
2 4 6 7 8 6 3 5 3 6 5 5 6 6 6 10 11 11 11 10 10 11 11 11 11 11 11 11 10 10 10 11 12 12 11 11 11 11 10 10 11 12 13 13 12 12 12 11 11
3 7 10 9 8 4 4 5 3 1 5 5 3 0 3 15 14 13 10 10 10 10 10 11 11 10 10 10 10 10 10 11 11 10 10 8 8 9 8 10 10 11 11 11 11 11 10 9 9
6 9 11 6 5 3 5 4 5 6 6 6 5 3 9 16 16 16 14 15 14 13 12 10 11 11 10 8 9 8 7 8 7 8 8 6 6 6 8 10 10 10 9 10 10 9 6 3 5
8 10 8 6 5 3 4 3 5 6 8 9 9 12 15 17 16 16 16 16 15 14 12 11 11 11 10 7 6 5 5 5 6 8 7 6 6 6 6 5 6 6 6 6 6 4 3 4 3
7 8 7 5 5 4 4 4 5 9 6 1 5 13 19 20 20 19 18 17 15 14 14 12 11 10 10 8 6 6 5 5 5 6 7 6 4 5 5 4 4 4 3 4 3 3 4 3 3
10 7 7 6 5 4 4 6 5 8 7 3 5 14 19 21 20 18 16 15 15 15 15 13 12 11 10 8 6 6 6 6 6 6 6 6 5 5 5 4 4 4 3 3 3 3 2 2 2
9 8 6 5 6 5 7 8 6 10 6 6 10 15 18 20 20 18 17 16 16 16 15 14 13 12 11 9 7 6 6 6 6 6 7 7 5 5 5 5 4 4 3 3 2 2 1 1 1
5 7 7 7 7 5 5 12 14 12 7 9 11 13 16 18 18 20 19 18 17 16 15 15 14 13 12 11 9 7 6 6 6 6 7 8 6 6 5 5 4 4 4 3 2 2 1 1 1
6 7 9 8 8 7 9 15 12 9 11 12 12 12 14 16 19 18 18 17 16 16 16 15 12 13 13 11 10 7 7 7 7 6 7 9 8 7 6 5 5 5 4 3 3 2 2 2 2
9 11 12 9 8 8 12 13 9 7 11 13 13 12 13 14 17 18 17 17 16 16 16 16 15 15 14 12 9 8 7 8 7 7 7 8 9 8 7 5 5 5 4 4 3 3 2 2 2
13 12 11 13 8 10 13 15 11 7 10 13 13 12 12 15 18 18 17 17 16 16 16 16 16 15 13 10 8 7 7 7 7 7 8 10 9 10 8 6 6 6 5 4 4 4 3 2 2
12 14 15 11 6 9 14 17 17 13 11 13 13 13 14 16 14 14 16 16 16 16 16 17 16 16 13 10 9 8 9 8 8 8 10 11 10 10 9 6 7 7 6 6 6 4 4 3 2
12 14 14 7 4 7 11 17 17 17 15 16 16 15 16 15 13 14 16 17 18 18 18 18 18 17 16 12 11 8 8 8 9 8 10 11 11 11 9 10 7 7 6 7 6 5 3 2 2
14 15 13 6 3 4 6 15 19 18 16 15 15 16 16 15 16 16 17 18 19 19 20 17 19 18 18 16 11 8 7 6 7 9 9 11 12 12 11 11 9 8 8 7 8 7 7 4 3
16 11 8 6 5 6 6 11 14 16 18 18 17 17 17 17 17 16 17 18 20 20 19 19 19 19 19 18 14 15 12 12 12 10 10 11 13 13 12 11 11 9 8 8 7 7 6 5 4
8 9 8 5 5 6 8 10 12 10 17 19 19 19 19 18 18 18 18 19 20 19 18 18 19 20 20 19 19 18 15 13 10 10 12 12 11 12 12 11 10 9 8 8 8 7 7 5 5
12 9 6 2 4 11 15 14 14 12 17 15 16 18 18 18 17 17 16 15 16 16 16 17 19 20 20 20 20 20 19 17 14 13 11 10 9 9 12 11 10 9 8 8 8 8 8 6 5
14 12 7 7 9 11 7 13 16 10 12 15 16 16 16 15 15 16 16 16 16 17 18 18 19 21 21 21 21 21 21 20 19 15 13 12 9 9 11 10 10 8 8 8 7 7 7 6 6
20 18 12 10 10 7 6 15 13 7 9 11 13 12 11 12 13 13 14 14 15 16 17 18 20 20 20 21 21 20 20 15 13 16 13 13 10 10 11 11 10 9 9 8 7 6 6 6 6
18 17 8 3 2 4 9 10 11 8 11 13 14 13 14 13 12 12 12 12 13 14 15 17 18 19 19 20 20 19 19 17 15 15 14 11 10 8 11 10 9 9 9 9 8 6 7 6 6
13 13 8 8 8 10 10 11 11 6 13 15 15 16 14 11 10 10 9 10 10 10 11 13 15 17 17 18 17 14 17 17 15 14 14 12 12 10 11 10 10 9 9 9 8 8 7 8 6
14 15 11 10 8 8 9 10 6 11 11 12 13 12 10 9 9 8 7 7 8 8 9 11 12 13 14 15 15 15 14 14 14 12 13 13 12 12 12 11 11 10 10 10 9 9 9 9 8
13 17 17 13 10 9 9 11 3 7 7 7 8 7 7 6 6 6 6 6 7 8 8 9 10 11 12 12 12 13 12 12 13 12 12 12 12 12 12 12 11 11 10 10 11 11 10 10 10
Wind_Direction
339 342 311 285 250 231 190 140 158 152 150 126 144 177 191 152 347 67 110 145 140 140 138 135 127 125 122 119 117 114 111 108 105 102 101 99 98 96 95 93 91 92 91 90 88 86 83 81 79
346 336 304 292 254 231 184 165 183 153 122 129 135 155 172 121 59 104 141 149 146 141 141 136 129 128 126 122 118 115 113 110 108 106 104 101 100 98 97 95 93 92 92 92 90 87 85 82 80
343 1 335 258 241 245 182 156 164 122 136 160 146 133 88 95 126 140 145 151 147 144 140 131 133 131 128 124 120 117 115 112 109 107 105 103 102 99 97 96 94 93 93 93 92 89 87 84 82
316 43 257 244 230 236 251 142 156 151 160 170 168 142 111 63 137 142 146 154 149 145 142 137 137 134 130 127 124 122 119 116 112 110 107 106 104 102 99 97 95 94 94 94 93 90 88 86 84
321 223 220 233 236 230 243 204 178 177 173 168 182 152 125 91 122 142 152 156 151 148 145 143 138 134 133 132 129 126 122 119 116 114 112 109 108 106 104 100 97 96 96 96 96 92 90 87 84
164 201 221 230 228 234 229 191 183 192 176 167 177 157 121 115 147 151 155 158 154 150 146 143 133 131 131 130 130 128 125 122 120 117 116 113 111 110 106 103 101 99 98 97 96 94 92 89 85
195 202 227 236 236 233 214 178 198 192 189 180 175 161 138 159 157 153 156 157 156 153 151 150 148 141 129 123 126 126 124 123 120 117 111 106 105 105 103 103 103 102 100 98 96 95 94 90 86
194 201 213 225 231 231 162 172 213 204 181 139 180 185 165 163 154 153 154 157 159 160 159 155 154 153 149 139 122 119 117 116 113 108 103 101 102 100 97 104 103 104 103 101 97 94 91 89 85
188 214 219 217 223 216 159 181 151 175 144 158 193 297 113 142 152 155 159 165 167 169 167 163 159 157 153 147 136 128 118 116 120 115 114 125 125 120 114 100 100 104 104 102 99 94 91 92 88
193 219 221 216 218 196 167 196 169 179 184 185 182 143 144 151 163 169 175 176 177 177 174 171 167 161 157 149 153 150 146 147 148 143 143 136 126 115 113 96 88 91 96 101 98 98 104 101 95
198 220 218 211 209 209 182 185 178 208 215 212 201 171 161 167 175 181 185 185 183 180 177 178 173 168 162 157 161 158 156 156 156 153 150 141 134 132 133 129 125 120 123 117 116 119 94 80 69
202 217 214 206 182 195 207 183 191 221 238 277 214 168 169 178 185 189 189 187 184 183 183 182 178 175 170 166 168 167 166 166 164 160 161 156 149 148 144 143 139 140 133 126 121 109 98 86 70
208 210 216 219 196 209 211 226 231 237 244 251 178 170 182 187 191 194 193 190 187 187 187 186 183 182 177 173 174 177 176 175 168 167 171 171 160 157 153 148 150 147 141 143 135 124 111 90 54
208 210 211 211 212 211 228 245 232 246 222 195 184 187 193 195 193 191 193 194 193 192 190 188 188 187 184 184 183 183 183 179 178 178 178 178 172 166 164 160 162 159 157 149 150 137 129 53 358
176 203 227 224 216 216 223 246 234 239 208 209 204 201 201 203 198 198 197 196 194 193 190 191 191 190 191 192 191 189 186 185 186 183 184 185 184 178 175 172 174 172 169 171 180 180 225 281 306
173 202 224 213 206 201 213 247 237 219 208 221 217 209 206 207 206 206 202 200 198 194 192 191 190 193 195 197 196 194 191 191 192 189 188 191 192 190 185 184 184 179 182 192 197 209 229 248 289
192 210 217 210 201 194 215 247 245 206 211 225 222 214 210 210 211 210 207 203 201 198 193 191 193 195 196 198 198 198 195 198 197 194 194 194 195 196 197 196 188 184 191 198 199 219 242 264 287
195 207 209 214 193 202 220 239 243 217 222 231 228 219 214 215 215 208 207 205 203 201 198 195 194 196 195 195 197 199 202 205 204 202 201 197 197 198 201 202 195 192 197 200 203 211 213 255 286
202 206 214 217 194 208 229 241 246 239 230 236 232 224 220 223 220 208 207 205 205 204 202 199 197 197 192 191 192 196 203 203 206 209 206 203 201 199 202 202 200 198 206 207 203 201 212 217 230
193 206 215 212 190 221 245 250 250 248 240 238 236 230 226 225 213 207 206 204 206 206 205 204 202 199 196 197 194 198 198 205 208 206 209 208 206 203 204 206 203 201 206 207 199 193 201 194 204
202 207 204 197 159 218 269 260 244 243 238 239 240 237 234 226 219 209 205 206 206 208 207 205 204 203 201 199 196 192 196 197 200 208 208 209 208 207 206 208 206 203 203 205 201 196 205 201 190
207 202 192 182 205 225 225 263 244 236 235 233 233 231 231 226 222 216 207 207 208 210 207 208 207 206 203 200 201 198 200 205 207 205 206 206 207 208 208 208 207 205 204 208 202 195 201 201 190
186 160 173 192 225 255 225 253 257 226 238 234 230 229 230 227 222 218 212 210 210 209 207 208 208 208 206 204 204 205 212 214 213 206 207 206 205 208 209 208 206 203 202 204 195 189 193 201 198
133 121 106 143 218 244 230 233 259 225 234 234 231 228 228 226 223 223 218 212 212 208 208 208 208 210 208 206 208 210 212 213 212 207 205 205 203 204 207 205 204 202 199 199 194 190 191 192 189
165 157 167 191 211 236 209 225 250 237 230 233 235 232 227 223 221 220 216 211 210 207 207 207 209 211 208 208 210 212 214 213 213 210 209 206 202 201 203 198 200 196 194 189 181 175 176 177 177
189 189 190 195 210 217 191 233 251 243 243 247 253 253 246 234 226 224 221 217 213 210 208 207 210 213 210 209 211 212 213 213 214 212 209 208 205 201 197 194 192 187 179 170 167 161 160 160 161
180 203 206 171 122 228 222 246 271 246 247 244 244 246 244 238 232 229 226 222 218 213 211 210 211 213 212 211 211 212 211 211 211 209 208 208 204 191 188 183 177 172 166 163 158 152 152 148 148
188 171 164 191 191 227 241 241 243 211 223 230 235 238 241 239 238 234 228 222 221 219 215 214 216 216 214 212 211 211 211 211 210 206 202 199 193 181 177 170 166 162 158 155 151 144 147 144 142
167 180 189 197 218 221 242 247 230 227 221 228 236 242 245 242 239 234 229 221 216 213 211 211 214 216 215 213 212 210 210 207 206 205 200 193 185 178 175 169 164 161 159 156 151 149 150 147 143
184 189 189 193 204 222 244 256 187 228 241 245 254 257 250 248 246 236 223 217 214 212 209 210 210 212 215 213 211 210 207 203 201 200 194 184 179 176 172 165 161 159 159 157 155 153 156 154 153